Tracking 18856 objects as of 12-Dec-2017
HD Live streaming from Space Station
objects crossing your sky now

USA 81

Track USA 81 now!
10-day predictions
USA 81 is classified as:


NORAD ID: 21949
Int'l Code: 1992-023A
Perigee: 792.8 km
Apogee: 795.6 km
Inclination: 85.0 °
Period: 100.6 minutes
Semi major axis: 7165 km
RCS: Unknown
Launch date: April 25, 1992
Source: United States (US)
Launch site: AIR FORCE WESTERN TEST RANGE (AFWTR)
aabbcc
Your satellite tracking list
Your tracking list is empty




NASA's NSSDC Master Catalog

Two Line Element Set (TLE):
1 21949U 92023A   17304.23126125 0.00000030  00000-0  11333-4 0    09
2 21949  85.0057  90.1402 0002000  75.2775 284.7224 14.31393224    04
Source of the keplerian elements: McCants